Flag for Canada Weather past 2 weeks in Trois-Rivieres, Quebec, Canada

Now
74 °F

Mild.


Feels Like: 76 °F
Forecast: N/A
Wind: 17 mph from Southwest

Location: Trois Rivieres

Current Time: Aug 30, 2014 at 4:44:03 PM

Latest Report: Aug 30, 2014 at 4:00 PM


Visibility: N/A

Pressure: 29.99 "Hg

Humidity: 65%

Dew point: 61 °F

Location of Trois-RivieresLocation

Historic Weather in Trois-Rivieres — Graph

°F

Trois-Rivieres temperature yesterday

Maximum temperature yesterday: 71 °F (at 3:00 PM)
Minimum temperature yesterday: 56 °F (at 6:00 AM)
Average temperature yesterday: 63 °F

Past Weeks' High & Low Weather Summary

 TemperatureHumidityPressure
High80 °F (Aug 24, 6:00 PM)100% (Aug 16, 6:00 AM)30.22 "Hg (Aug 16, 6:00 AM)
Low54 °F (Aug 19, 6:00 AM)36% (Aug 29, 1:00 PM)29.76 "Hg (Aug 17, 5:00 AM)
Average66 °F79%29.98 "Hg
* Reported Aug 15 3:00 PM — Aug 30 3:00 PM, Trois-Rivieres, Weather by CustomWeather, © 2014

Note: Actual official high and low records may vary slightly from our data, if they occured in-between our weather recording intervals... More about our weather records

Advertising

Trois-Rivieres weather history for previous 24 hours

 ConditionsComfort  
Time TempWeatherWind HumidityBarometerVisibility
3:00 PM
Aug 30
73 °FMild.17 mph65%30.00 "HgN/A
2:00 PM73 °FMild.18 mph67%30.02 "HgN/A
1:00 PM72 °FMild.18 mph66%30.04 "HgN/A
12:00 PM72 °FMild.18 mph70%30.05 "HgN/A
11:00 AM69 °FMild.16 mph76%30.06 "HgN/A
10:00 AM66 °FMild.10 mph84%30.09 "HgN/A
9:00 AM62 °FCool.7 mph88%30.10 "HgN/A
8:00 AM60 °FCool.7 mph88%30.11 "HgN/A
7:00 AM59 °FCool.7 mph89%30.12 "HgN/A
6:00 AM58 °FCool.6 mph85%30.12 "HgN/A
5:00 AM57 °FCool.1 mph86%30.12 "HgN/A
4:00 AM56 °FCool.2 mph87%30.13 "HgN/A
3:00 AM58 °FCool.3 mph82%30.14 "HgN/A
2:00 AM60 °FCool.2 mph79%30.15 "HgN/A
1:00 AM60 °FCool.2 mph75%30.15 "HgN/A
12:00 AM62 °FCool.1 mph81%30.16 "HgN/A
11:00 PM
Aug 29
64 °FMild.2 mph78%30.16 "HgN/A
10:00 PM65 °FMild.2 mph74%30.15 "HgN/A
9:00 PM64 °FMild.1 mph73%30.16 "HgN/A
8:00 PM66 °FMild.2 mph55%30.16 "HgN/A
7:00 PM69 °FMild.3 mph47%30.16 "HgN/A
6:00 PM70 °FMild.6 mph42%30.16 "HgN/A
5:00 PM70 °FMild.5 mph45%30.16 "HgN/A
Weather by CustomWeather, © 2014

See weather overviewHow to use our weather pages